TimeCST,TemperatureF,Dew PointF,Humidity,Sea Level PressureIn,VisibilityMPH,Wind Direction,Wind SpeedMPH,Gust SpeedMPH,PrecipitationIn,Events,Conditions,WindDirDegrees,DateUTC
12:53 AM,69.1,66.9,93,30.05,6.0,SSE,11.5,-,N/A,,Clear,150,2012-12-04 06:53:00
1:53 AM,70.0,68.0,93,30.07,8.0,SE,6.9,-,N/A,,Overcast,140,2012-12-04 07:53:00
2:21 AM,69.8,68.0,94,30.07,7.0,SSE,8.1,-,N/A,,Overcast,150,2012-12-04 08:21:00
2:29 AM,69.8,68.0,94,30.07,9.0,SSE,9.2,-,N/A,,Overcast,150,2012-12-04 08:29:00
2:53 AM,70.0,66.9,90,30.07,10.0,SSE,11.5,-,N/A,,Overcast,160,2012-12-04 08:53:00
3:53 AM,69.1,66.9,93,30.09,10.0,South,3.5,-,N/A,,Mostly Cloudy,190,2012-12-04 09:53:00
4:33 AM,69.8,66.2,88,30.08,10.0,SSE,9.2,-,0.00,,Scattered Clouds,150,2012-12-04 10:33:00
4:53 AM,68.0,66.0,93,30.07,10.0,South,4.6,-,0.00,,Scattered Clouds,180,2012-12-04 10:53:00
5:32 AM,66.2,66.2,100,30.09,10.0,Calm,Calm,-,N/A,,Mostly Cloudy,0,2012-12-04 11:32:00
5:53 AM,68.0,66.0,93,30.10,10.0,South,3.5,-,N/A,,Overcast,180,2012-12-04 11:53:00
6:07 AM,68.0,66.2,94,30.10,10.0,SW,3.5,-,N/A,,Mostly Cloudy,220,2012-12-04 12:07:00
6:53 AM,64.9,64.0,97,30.12,10.0,SSE,6.9,-,N/A,,Partly Cloudy,160,2012-12-04 12:53:00
7:53 AM,68.0,66.0,93,30.13,10.0,SE,4.6,-,N/A,,Clear,140,2012-12-04 13:53:00
8:53 AM,71.1,68.0,90,30.14,10.0,SSE,6.9,-,N/A,,Scattered Clouds,160,2012-12-04 14:53:00
9:53 AM,73.0,69.1,87,30.17,10.0,SSE,10.4,-,N/A,,Scattered Clouds,160,2012-12-04 15:53:00
10:53 AM,77.0,69.1,76,30.15,10.0,SSE,9.2,-,0.00,,Partly Cloudy,160,2012-12-04 16:53:00
11:42 AM,78.8,68.0,69,30.13,10.0,South,5.8,-,N/A,,Mostly Cloudy,180,2012-12-04 17:42:00
11:53 AM,79.0,68.0,69,30.12,10.0,South,6.9,-,N/A,,Mostly Cloudy,170,2012-12-04 17:53:00
12:53 PM,78.1,66.9,68,30.07,10.0,South,10.4,-,N/A,,Unknown,180,2012-12-04 18:53:00
12:56 PM,78.8,66.2,65,30.07,10.0,South,12.7,-,N/A,Thunderstorm,Thunderstorm,170,2012-12-04 18:56:00
1:31 PM,66.2,62.6,88,30.12,0.5,NNE,16.1,26.5,0.07,Fog-Rain-Thunderstorm,Heavy Thunderstorms and Rain,20,2012-12-04 19:31:00
1:39 PM,64.4,62.6,94,30.09,0.2,NNE,34.5,42.6,0.70,Fog-Rain-Thunderstorm,Heavy Thunderstorms and Rain,20,2012-12-04 19:39:00
1:53 PM,66.0,61.0,84,30.09,0.2,North,17.3,28.8,1.51,Rain-Thunderstorm,Heavy Thunderstorms and Rain,360,2012-12-04 19:53:00
1:58 PM,64.4,60.8,88,30.11,0.5,North,18.4,27.6,0.32,Fog-Rain-Thunderstorm,Heavy Thunderstorms and Rain,10,2012-12-04 19:58:00
2:08 PM,66.2,62.6,88,30.10,0.8,ENE,5.8,-,0.73,Rain-Thunderstorm,Heavy Thunderstorms and Rain,60,2012-12-04 20:08:00
2:11 PM,66.2,62.6,88,30.09,1.5,NE,9.2,-,0.76,Rain-Thunderstorm,Thunderstorms and Rain,40,2012-12-04 20:11:00
2:18 PM,64.4,62.6,94,30.08,2.5,North,11.5,-,0.80,Rain-Thunderstorm,Heavy Thunderstorms and Rain,360,2012-12-04 20:18:00
2:24 PM,64.4,60.8,88,30.09,6.0,North,15.0,26.5,0.82,Rain-Thunderstorm,Light Thunderstorms and Rain,360,2012-12-04 20:24:00
2:53 PM,66.9,62.1,84,30.12,4.0,SSW,9.2,21.9,0.86,Rain-Thunderstorm,Thunderstorms and Rain,210,2012-12-04 20:53:00
2:57 PM,66.2,60.8,83,30.11,7.0,SW,9.2,-,0.01,Rain-Thunderstorm,Thunderstorms and Rain,230,2012-12-04 20:57:00
3:53 PM,66.0,64.0,93,30.12,10.0,North,17.3,-,0.03,Rain-Thunderstorm,Thunderstorms and Rain,350,2012-12-04 21:53:00
4:53 PM,64.0,60.1,87,30.12,9.0,North,9.2,-,0.01,Rain-Thunderstorm,Thunderstorms and Rain,350,2012-12-04 22:53:00
5:53 PM,63.0,62.1,97,30.15,6.0,South,6.9,-,0.07,Rain-Thunderstorm,Thunderstorms and Rain,170,2012-12-04 23:53:00
6:53 PM,63.0,60.1,90,30.11,10.0,SSE,12.7,-,0.08,Rain,Light Rain,150,2012-12-05 00:53:00
7:53 PM,64.9,59.0,81,30.09,10.0,SE,12.7,-,0.01,Rain,Light Rain,140,2012-12-05 01:53:00
8:53 PM,64.0,59.0,84,30.14,10.0,SW,6.9,-,0.01,,Clear,230,2012-12-05 02:53:00
9:53 PM,62.1,61.0,96,30.14,10.0,WSW,6.9,-,N/A,,Clear,250,2012-12-05 03:53:00
10:53 PM,61.0,60.1,97,30.14,10.0,West,3.5,-,N/A,,Mostly Cloudy,280,2012-12-05 04:53:00
11:53 PM,61.0,61.0,100,30.15,10.0,WNW,5.8,-,N/A,Thunderstorm,Overcast,290,2012-12-05 05:53:00